Weather History for Fort Bragg, NC

Change the Weather History Date:

Sunday, January 20, 2013

  Actual Average Record
Temperature  
Mean Temperature 52 °F -  
Max Temperature 65 °F 49 °F 69 °F (1999)
Min Temperature 39 °F 31 °F 20 °F (2008)
Degree Days  
Heating Degree Days 12    
Growing Degree Days 2 (Base 50)    
Moisture  
Dew Point 34 °F    
Average Humidity 61    
Maximum Humidity 87    
Minimum Humidity 27    
Precipitation  
Precipitation 0.00 in - - ()
Sea Level Pressure  
Sea Level Pressure 30.09 in    
Wind  
Wind Speed 6 mph (WSW)    
Max Wind Speed 13 mph    
Max Gust Speed -    
Visibility 10 miles    
Events      
Averages and records for this station are not official NWS values.
T = Trace of Precipitation, MM = Missing Value Source: NWS Daily Summary

Daily Weather History Graph

Daily Weather History Graph

Search for Another Location

Airport:

Trip Planner

Search our weather history database for the weather conditions in past years. The results will help you decide how hot, cold, wet, or windy it might be!

Date:

Astronomy

Jan. 20, 2013 Rise Set
Actual Time 7:21 AM EST 5:32 PM EST
Civil Twilight 6:54 AM EST 5:59 PM EST
Nautical Twilight 6:23 AM EST 6:30 PM EST
Astronomical Twilight 5:53 AM EST 7:00 PM EST
Moon 12:31 PM EST (1/20) 1:53 AM EST (1/20)
Length of Visible Light 11h 05m
Length of Day
10h 10m
Waxing Gibbous, 66% of the Moon is Illuminated
Jan 20
Waxing Gibbous
Jan 26
Full
Feb 3
Last Quarter
Feb 10
New
Feb 17
First Quarter

Hourly Weather History & Observations

Time (EST) Temp. Windchill Dew Point Humidity Pressure Visibility Wind Dir Wind Speed Gust Speed Precip Events Conditions
12:55 AM 42.8 °F 40.1 °F 36.7 °F 79% 30.16 in 10.0 mi SSW 4.6 mph - N/A   Clear
1:55 AM 42.6 °F 39.9 °F 36.9 °F 80% 30.15 in 10.0 mi SW 4.6 mph - N/A   Clear
2:55 AM 41.2 °F 38.2 °F 36.3 °F 83% 30.14 in 10.0 mi West 4.6 mph - N/A   Clear
3:55 AM 41.4 °F 37.6 °F 37.0 °F 85% 30.14 in 10.0 mi SSW 5.8 mph - N/A   Clear
4:55 AM 41.0 °F 37.1 °F 37.2 °F 86% 30.12 in 10.0 mi WSW 5.8 mph - N/A   Clear
5:55 AM 40.5 °F 36.5 °F 36.9 °F 87% 30.11 in 10.0 mi SW 5.8 mph - N/A   Clear
6:55 AM 40.3 °F 35.5 °F 36.7 °F 87% 30.11 in 10.0 mi SW 6.9 mph - N/A   Clear
7:55 AM 40.5 °F 35.1 °F 36.7 °F 86% 30.11 in 10.0 mi WSW 8.1 mph - N/A   Clear
8:55 AM 45.3 °F 39.7 °F 37.2 °F 73% 30.12 in 10.0 mi WSW 11.5 mph - N/A   Clear
9:55 AM 50.7 °F - 35.8 °F 57% 30.12 in 10.0 mi WSW 12.7 mph - N/A   Clear
10:55 AM 55.4 °F - 32.7 °F 42% 30.12 in 10.0 mi WSW 5.8 mph - N/A   Clear
11:55 AM 59.2 °F - 30.7 °F 34% 30.09 in 10.0 mi WSW 8.1 mph - N/A   Clear
12:55 PM 62.8 °F - 30.4 °F 30% 30.04 in 10.0 mi West 10.4 mph - N/A   Clear
1:55 PM 64.6 °F - 30.2 °F 28% 30.01 in 10.0 mi West 9.2 mph - N/A   Clear
2:55 PM 65.7 °F - 30.4 °F 27% 30.00 in 10.0 mi West 8.1 mph - N/A   Clear
3:55 PM 65.8 °F - 31.5 °F 28% 30.00 in 10.0 mi WSW 9.2 mph - N/A   Clear
4:55 PM 63.1 °F - 31.8 °F 31% 30.01 in 10.0 mi West 10.4 mph - N/A   Clear
5:55 PM 57.0 °F - 32.4 °F 39% 30.02 in 10.0 mi WSW 4.6 mph - N/A   Clear
6:55 PM 54.1 °F - 32.9 °F 45% 30.05 in 10.0 mi WSW 3.5 mph - N/A   Clear
7:55 PM 47.5 °F - 35.4 °F 63% 30.06 in 10.0 mi Calm Calm - N/A   Clear
8:55 PM 43.3 °F - 36.5 °F 77% 30.07 in 10.0 mi Calm Calm - N/A   Clear
9:55 PM 42.3 °F 38.6 °F 34.3 °F 74% 30.09 in 10.0 mi NNW 5.8 mph - N/A   Clear
10:55 PM 46.8 °F - 31.8 °F 56% 30.10 in 10.0 mi Calm Calm - N/A   Clear
11:55 PM 39.0 °F - 33.6 °F 81% 30.10 in 10.0 mi Calm Calm - N/A   Clear